Regional Weather Roundup
Issued by NWS

Home | Current Version | Previous Version | Text Only | Print | Product List | Glossary Off
Versions: 1 2 3 4 5 6 7 8 9 10 11 12 13 14 15 16 17 18 19 20 21 22 23 24 25 26 27 28 29 30 31

000
ASUS45 KBOU 300007
RWRCO

WEATHER ROUNDUP FOR COLORADO
NATIONAL WEATHER SERVICE DENVER/BOULDER CO
600 PM MDT WED OCT 29 2014

NOTE: "FAIR" INDICATES FEW OR NO CLOUDS BELOW 12000 FEET WITH NO
SIGNIFICANT WEATHER AND/OR OBSTRUCTIONS TO VISIBILITY.

COZ001>005-013-030-031-300100-
...NORTHWEST COLORADO...

CITY           SKY/WX    TMP DP  RH WIND       PRES   REMARKS
CRAIG          CLEAR     54  19  25 W8        30.25S
HAYDEN         PTCLDY    54  19  26 W8        30.26R
MEEKER         PTCLDY    57  17  21 CALM      30.27S
MOUNT WERNER   NOT AVBL
STEAMBOAT SPGS PTCLDY    53  20  27 W8        30.27R
WALDEN         CLEAR     43  19  39 W13       30.27S
$$

COZ006>008-011-300100-
...WEST CENTRAL VALLEYS...

CITY           SKY/WX    TMP DP  RH WIND       PRES   REMARKS
GRAND JUNCTION CLEAR     59  18  20 W5        30.23S
MONTROSE       CLEAR     60  18  19 N6        30.27R
EAGLE          PTCLDY    57  12  17 SW16      30.26S
RIFLE          MOCLDY    59  19  21 W12       30.23S
DELTA          CLEAR     63  15  15 SW7       30.23S
NUCLA          CLEAR     61  14  16 CALM      30.30F
$$

COZ017>023-064>068-300100-
...SOUTHWEST COLORADO...

CITY           SKY/WX    TMP DP  RH WIND       PRES   REMARKS
DURANGO        CLEAR     59  15  18 S10       30.26F
CORTEZ         CLEAR     61  12  14 W8        30.27S
PAGOSA SPRINGS CLEAR     59  15  17 SW5       30.32S
TELLURIDE      CLEAR     51  13  21 W8        30.42S
WOLF CREEK PAS CLEAR     36  14  41 SW16      30.50S
$$

COZ009-010-012-014-032>034-037-058>063-300100-
...CENTRAL COLORADO...

CITY           SKY/WX    TMP DP  RH WIND       PRES   REMARKS
ASPEN          CLEAR     52  12  20 VRB5      30.31R
BUENA VISTA    CLEAR     55   7  14 SW18G24   30.24S
COPPER MTN     CLEAR     37  10  32 W21G28    30.45S
BERTHOUD PASS  FAIR      30  27  86 NW22G36   30.44R WCI  17
COTTONWOOD PAS CLEAR     52   0  11 N6G20     30.33F
GUNNISON       CLEAR     55   9  15 SW10      30.32R
KREMMLING      CLEAR     54  16  22 NW8G17      N/A
LEADVILLE      CLEAR     43  10  26 NW8       30.36S
MONARCH PASS   CLEAR     36  10  35 W39       30.54F
SALIDA         CLEAR     58  11  15 SW16G25   30.30S
SUNLIGHT       PTCLDY    41  18  38 CALM      30.45S
WILKERSON PASS NOT AVBL
$$

COZ069>075-300100-
...SAN LUIS VALLEY/SANGRE DE CRISTO MOUNTAINS...

CITY           SKY/WX    TMP DP  RH WIND       PRES   REMARKS
ALAMOSA        CLEAR     58   9  14 CALM      30.26S
LA VETA PASS   CLEAR     45  10  24 S14G23    30.35F
SAGUACHE       CLEAR     59   5  11 N13       30.28S
$$

COZ035-036-038>040-300100-
...NORTHERN COLORADO FRONT RANGE...

CITY           SKY/WX    TMP DP  RH WIND       PRES   REMARKS
DENVER INTL AP PTCLDY    62  19  19 W8        30.11R
DMNS CITY PARK   N/A     64  16  15 N6G13     30.10S
AURORA         PTCLDY    62  19  18 NW16G24   30.11S
FRONT RANGE AP PTCLDY    63  19  19 NW7       30.12S
ERIE MUNI ARPT CLEAR     61  19  19 W7        30.09S
BOULDER MUN AP CLEAR     64  21  19 CALM      30.09S
CENTENNIAL     PTCLDY    62  19  19 N6        30.12S
BROOMFIELD     PTCLDY    64  19  17 W17       30.12S
FORT COLLINS   CLEAR     63  19  19 NW14      30.10R
LONGMONT       CLEAR     65  20  17 W5        30.10S
$$

COZ041-046-047-076>085-087-088-300100-
...PIKES PEAK/PALMER DIVIDE AND SOUTHERN FOOTHILLS...

CITY           SKY/WX    TMP DP  RH WIND       PRES   REMARKS
COLO. SPRINGS  PTCLDY    60  15  17 E7        30.16R
A. F. ACADEMY  CLEAR     54  20  26 NW5       30.17R
ELLICOTT       CLEAR     55  15  20 SE7       30.15R
FALCON         CLEAR     57  12  16 CALM      30.20R
FORT CARSON    CLEAR     60  17  18 E6        30.13R
LIMON          CLEAR     59  16  18 SW6       30.11R
MONUMENT HILL  CLEAR     52  18  25 NE6       30.19S
TRINIDAD       CLEAR     68  13  12 E3        30.10F
$$

COZ042>045-048>051-090-091-300100-
...NORTHEAST COLORADO...

CITY           SKY/WX    TMP DP  RH WIND       PRES   REMARKS
GREELEY ARPT   CLEAR     61  19  20 NW7       30.08R
AKRON          CLEAR     59  18  20 W10       30.06S
BURLINGTON     CLEAR     59  24  26 S9        30.06R
WRAY           CLEAR     63  14  15 SW7       30.01S
STERLING       CLEAR     68  28  22 NW17      30.02R
HOLYOKE        CLEAR     63  21  20 NW7       30.01R
FORT MORGAN    CLEAR     63  20  19 NW15G22   30.08R
$$

COZ086-089-092>099-300100-
...SOUTHEAST COLORADO...

CITY           SKY/WX    TMP DP  RH WIND       PRES   REMARKS
PUEBLO         CLEAR     65  14  14 E9        30.05R
LA JUNTA       CLEAR     64  20  18 E7        30.05S
LAMAR          CLEAR     66  23  19 E3        30.03S
SPRINGFIELD      N/A     57  25  29 S10       30.07S
$$



USA.gov is the U.S. government's official web portal to all federal, state and local government web resources and services.